Wind_Speed
9 10 5 1 4 5 4 3 4 5 5 8 8 11 13 13 13 12 12 14 12 14 18 22 24 19 17 14 22 24 23 22 18 23 29 21 16 15 14 13 13 12 12 13 15 16 16 16 16
9 7 2 3 3 2 2 2 3 3 7 10 12 15 16 17 18 16 13 11 12 13 19 24 24 22 18 18 18 23 19 19 22 22 24 22 18 18 16 16 16 14 14 15 16 16 14 13 11
7 4 5 4 2 2 3 4 3 3 7 11 16 18 19 20 18 15 14 13 12 16 18 20 21 24 17 22 20 19 18 23 24 22 25 22 19 19 18 18 17 15 15 16 14 14 13 14 13
5 5 5 5 1 3 4 0 2 6 10 17 21 19 19 17 18 16 16 16 15 18 18 19 20 18 22 30 23 24 23 29 30 29 24 23 19 22 20 19 17 17 18 17 15 14 13 13 12
6 5 9 8 2 2 3 4 4 6 12 17 19 19 20 19 19 17 17 19 18 17 18 18 17 24 29 35 34 32 21 30 31 32 33 16 22 24 23 19 18 18 18 16 16 15 13 12 11
8 7 8 10 2 4 4 3 4 7 10 15 18 19 18 19 19 12 15 16 16 16 18 17 22 25 29 37 39 38 27 28 33 34 30 22 26 25 23 21 20 19 19 17 16 15 14 13 12
10 10 12 9 5 2 5 7 9 12 13 17 20 22 18 21 20 15 16 19 18 18 21 20 25 28 30 39 41 42 38 38 41 36 32 28 27 26 23 22 22 22 20 18 17 15 14 12 11
12 12 13 14 9 5 6 9 12 14 15 19 22 19 23 23 20 21 20 18 19 21 20 18 23 28 36 44 44 42 43 35 41 44 30 30 28 24 24 26 26 24 21 19 18 16 14 12 11
15 15 16 16 13 9 8 12 13 13 16 21 22 22 23 22 18 20 19 17 15 17 18 23 17 23 35 47 38 39 39 40 43 43 36 32 27 28 29 28 26 23 21 19 16 13 11 9 10
19 18 14 16 12 12 9 13 14 16 16 18 21 22 25 20 17 21 16 14 12 14 16 17 26 22 26 39 33 34 36 37 34 32 35 31 32 30 31 30 27 24 21 18 15 13 11 10 10
22 20 12 15 15 16 12 11 14 17 19 19 21 22 24 15 18 15 10 9 10 13 18 16 17 13 7 28 14 6 16 21 33 36 35 31 35 34 33 32 30 25 22 18 16 15 14 11 10
24 20 17 21 20 20 17 16 17 21 20 21 20 20 22 14 14 13 8 6 9 13 14 12 12 11 6 16 15 10 7 27 38 35 36 38 37 35 33 29 26 25 22 18 13 14 15 10 11
25 21 22 23 26 24 23 21 22 27 21 22 22 19 20 14 12 12 10 7 7 11 13 19 13 6 11 16 17 13 11 21 34 39 42 39 36 34 30 29 28 25 22 20 17 17 12 11 10
21 19 23 26 26 27 26 25 28 14 22 23 22 17 19 14 10 11 11 8 6 8 14 17 17 13 16 19 15 11 15 20 30 43 42 40 38 31 28 29 28 25 23 21 18 12 11 10 10
22 24 24 24 23 28 27 28 29 22 21 21 20 17 17 13 8 10 7 8 8 10 11 9 22 15 19 11 16 15 13 23 28 34 42 41 37 29 28 31 27 24 21 19 15 13 9 7 7
16 21 24 16 8 7 10 18 13 15 11 11 11 12 12 12 8 8 9 7 9 10 10 9 12 18 22 19 16 23 14 23 34 32 34 41 38 33 32 29 27 23 24 19 14 13 10 6 8
21 19 18 16 19 14 10 15 8 7 3 6 10 11 11 11 10 9 6 7 9 10 8 10 10 27 26 17 16 21 23 27 30 37 38 41 37 33 32 30 26 25 25 18 17 12 11 9 10
25 23 25 24 18 17 15 13 10 7 8 8 11 12 10 10 10 5 3 4 7 10 8 9 10 22 21 18 15 16 21 26 30 35 39 41 36 34 34 31 29 29 23 20 18 16 12 12 10
23 17 17 14 14 19 18 18 15 17 15 11 9 10 8 10 11 6 4 4 4 7 8 10 4 22 22 23 22 25 25 20 27 33 39 47 39 39 38 37 34 31 29 22 22 18 16 15 14
29 25 25 23 21 22 19 20 18 21 20 15 12 14 13 12 13 8 6 4 3 5 7 8 5 15 21 22 23 22 25 21 30 32 42 41 41 43 43 39 39 37 37 34 26 20 19 18 16
32 32 28 25 21 20 20 25 19 19 23 19 15 16 17 14 13 11 9 6 4 3 4 6 6 2 10 16 26 23 24 24 31 32 44 44 43 50 48 42 39 43 43 33 24 24 22 21 20
32 31 29 25 20 12 11 11 18 21 22 20 15 15 12 11 11 12 11 8 7 4 0 3 4 4 3 3 6 20 23 24 31 34 37 45 49 52 47 47 44 34 29 30 30 24 22 22 20
26 24 22 21 21 19 17 14 12 6 16 18 17 17 13 10 8 10 11 11 11 7 5 2 4 4 4 4 2 7 20 19 28 39 31 42 46 42 39 46 44 31 33 34 28 23 24 24 25
13 15 8 13 13 8 17 11 17 14 13 18 14 12 16 15 11 10 13 14 14 11 9 7 5 5 4 4 5 5 7 15 32 34 27 25 33 36 40 33 35 34 36 32 26 25 25 30 30
21 10 3 3 5 8 12 13 30 19 20 16 16 11 12 18 14 12 14 15 16 11 10 9 6 5 5 5 4 5 7 8 12 18 26 25 24 29 28 30 29 36 36 35 33 32 34 33 34
31 30 10 7 5 3 12 9 15 6 9 10 4 4 10 16 16 12 18 15 16 14 12 11 9 8 6 6 7 7 7 8 10 12 15 16 19 20 21 27 33 38 38 36 38 40 40 39 38
17 22 27 9 5 3 6 10 10 16 24 13 9 10 13 13 17 18 17 20 17 15 13 11 11 12 12 11 10 10 10 10 11 13 15 16 19 20 22 28 35 37 39 42 41 40 43 41 40
23 14 10 11 5 10 6 8 11 5 19 13 14 14 16 13 15 19 19 21 18 17 16 15 12 12 14 16 17 15 14 14 15 16 18 19 21 24 28 31 34 36 38 39 41 44 45 42 40
22 23 17 12 17 7 9 9 12 6 2 3 11 7 11 10 13 13 19 21 22 19 17 17 17 16 17 17 16 17 17 19 20 20 21 21 24 25 30 32 36 38 39 42 45 47 43 44 40
12 12 21 15 12 9 11 18 19 10 11 21 15 12 15 9 11 11 10 16 22 23 21 19 21 22 22 23 25 24 17 18 22 24 21 25 27 29 33 34 37 39 42 44 46 46 44 46 51
Wind_Direction
333 327 313 156 135 86 58 350 325 346 356 354 319 314 310 295 283 286 298 304 283 233 213 208 224 228 230 234 203 212 218 209 206 222 218 218 234 244 210 184 176 173 170 169 164 160 156 149 137
328 320 240 140 102 76 26 357 310 31 4 353 336 324 314 295 284 273 279 277 279 249 229 224 227 206 217 228 217 208 223 232 223 220 211 222 227 225 205 183 179 177 177 176 173 164 154 140 130
324 289 184 169 94 22 345 60 90 10 1 349 341 330 318 303 285 266 274 258 249 250 218 220 239 204 221 215 224 224 226 229 212 208 211 218 218 213 196 183 177 176 181 183 171 165 148 137 136
300 262 209 190 170 319 306 242 38 356 350 346 344 327 320 308 292 278 269 259 242 255 223 226 246 200 227 216 209 213 232 224 235 206 222 220 214 206 190 183 175 176 182 177 171 159 152 142 148
266 255 228 221 273 266 228 207 343 356 343 340 336 330 327 319 309 277 261 259 253 251 237 225 230 228 223 219 213 219 227 233 226 218 214 225 210 196 187 178 176 179 179 173 167 161 161 158 158
248 255 233 226 246 208 194 230 290 315 324 321 321 327 329 324 307 280 257 256 253 249 234 228 223 228 230 225 220 228 225 211 210 207 210 217 206 193 180 176 176 178 177 175 169 169 169 165 159
245 247 241 224 218 186 223 257 270 280 304 302 304 306 320 316 304 286 276 262 260 250 237 222 228 231 229 226 226 224 230 225 223 209 192 206 203 191 176 174 176 177 176 173 172 173 167 168 174
238 239 245 228 219 238 267 268 272 281 298 303 303 301 318 316 300 292 287 274 253 246 239 240 233 233 221 222 223 229 231 226 211 200 194 203 200 188 178 176 176 177 172 177 174 171 174 183 184
235 235 248 231 227 249 268 288 291 301 304 302 304 303 315 315 303 294 287 273 255 235 232 224 244 249 234 235 227 229 221 209 195 185 189 196 192 185 181 175 176 175 178 174 174 174 178 177 180
231 239 259 223 230 278 283 293 289 299 309 317 310 304 320 313 311 306 290 256 238 244 233 251 279 298 216 214 218 205 184 176 195 191 182 189 187 188 182 173 175 176 174 173 169 169 173 175 165
239 243 253 229 252 276 288 281 280 298 304 316 308 311 321 310 318 324 295 249 251 261 253 256 278 302 164 181 166 150 187 192 199 190 179 191 195 186 182 174 179 176 172 175 173 169 171 171 165
243 245 251 240 256 263 277 280 288 285 306 311 318 315 320 314 318 339 348 278 269 280 272 268 280 237 193 169 147 136 118 209 180 179 182 192 187 185 182 175 172 176 168 173 170 174 170 163 188
245 253 251 249 255 262 274 282 288 292 298 308 313 316 316 309 314 330 332 335 340 311 301 301 245 255 178 174 163 154 161 195 205 191 184 186 187 185 176 173 176 173 172 166 172 164 155 182 192
252 256 251 251 256 263 275 276 280 283 302 301 306 311 311 307 302 319 331 328 347 322 312 313 213 215 208 182 183 167 195 178 183 179 181 190 193 187 179 184 176 174 176 172 167 163 181 187 194
250 255 260 262 267 271 270 266 271 295 296 297 302 307 313 314 292 306 315 320 337 338 328 337 212 215 200 197 196 179 212 183 188 185 185 192 192 189 189 181 177 179 179 183 166 183 194 199 187
241 252 260 267 221 269 255 274 298 295 291 293 310 305 305 315 291 299 299 312 334 342 338 319 227 209 192 206 199 196 198 187 198 196 200 191 194 188 187 183 181 182 190 178 175 204 208 206 211
241 246 252 255 251 256 244 272 313 291 311 298 314 300 300 305 308 308 288 313 339 339 351 326 253 222 207 231 212 224 204 196 196 199 189 187 181 185 191 187 185 184 188 177 192 209 222 218 217
227 237 253 254 259 248 257 268 248 285 296 284 291 305 301 303 314 317 287 304 328 343 352 347 234 189 189 191 192 204 199 204 199 194 191 188 182 191 193 190 188 193 185 187 198 213 229 226 230
243 243 249 251 253 251 259 267 251 266 271 265 280 295 285 289 300 297 305 293 330 336 358 4 235 201 207 203 221 205 221 220 193 195 198 194 187 191 196 195 193 199 194 193 203 214 235 235 235
242 241 246 256 266 269 266 270 265 265 261 256 267 284 282 268 283 277 271 268 287 338 10 18 17 204 200 204 206 206 202 204 211 204 198 201 196 193 200 200 200 204 199 220 210 224 234 241 245
241 245 249 256 272 275 276 278 272 258 258 257 265 277 277 275 269 272 261 254 251 298 18 34 41 138 197 220 211 206 215 216 214 214 202 205 210 195 202 202 208 214 221 211 212 228 233 239 248
245 253 253 258 266 273 271 290 268 265 266 254 262 269 269 268 261 266 262 241 237 238 3 67 60 68 118 175 208 206 222 222 210 208 213 206 204 200 211 211 215 221 206 203 218 222 240 247 256
245 254 256 255 264 271 264 276 286 276 268 259 259 255 269 271 262 258 254 236 231 222 214 170 116 93 76 91 123 195 212 210 207 201 236 222 218 227 224 221 226 214 209 210 222 233 246 250 264
260 232 234 254 256 251 244 235 281 272 282 289 278 271 260 265 264 241 242 234 238 229 216 203 176 153 137 112 116 135 159 193 199 211 214 224 215 216 213 230 221 225 217 217 230 236 245 253 261
198 204 256 246 208 239 249 220 249 272 297 287 272 262 259 245 226 226 239 241 239 233 217 216 214 196 173 155 157 146 146 164 185 198 217 206 208 220 228 231 225 217 218 220 230 236 245 259 264
223 223 201 226 219 240 222 214 249 254 287 315 218 274 299 237 221 225 234 232 235 235 225 217 217 225 226 212 194 198 185 173 176 191 201 206 217 221 220 219 218 216 218 220 225 238 246 258 263
196 203 221 251 269 302 231 246 246 261 278 261 257 284 304 252 235 227 227 230 226 217 220 222 223 230 237 240 232 223 221 213 204 202 204 205 212 214 218 214 215 220 223 225 231 245 249 260 263
221 205 189 206 232 247 228 240 235 266 291 284 269 261 290 264 252 232 222 223 218 214 223 227 222 228 238 243 245 245 243 241 232 224 222 217 219 219 218 219 223 228 231 234 239 245 252 257 258
209 219 219 222 230 246 260 246 259 259 207 4 341 258 315 251 229 233 233 220 221 220 221 222 221 232 245 255 251 248 251 256 252 249 244 241 234 231 230 230 229 230 234 238 243 247 252 255 256
194 224 230 243 227 232 252 251 252 258 248 281 303 301 299 268 229 212 207 218 224 226 231 237 242 247 253 261 261 258 242 244 255 254 257 261 262 255 248 241 239 242 243 246 251 253 250 254 253
Height
3141 3139 3138 3138 3143 3139 3140 3140 3138 3138 3139 3137 3136 3136 3136 3134 3132 3133 3127 3126 3125 3126 3126 3127 3129 3132 3134 3136 3139 3143 3145 3147 3148 3150 3153 3155 3156 3159 3163 3164 3165 3168 3169 3171 3171 3173 3173 3174 3174
3140 3138 3138 3137 3139 3138 3139 3138 3137 3137 3137 3136 3135 3134 3133 3130 3129 3127 3125 3123 3123 3123 3123 3125 3126 3127 3131 3133 3137 3141 3144 3145 3145 3146 3150 3153 3155 3159 3162 3163 3166 3168 3169 3170 3171 3172 3174 3174 3176
3139 3137 3138 3137 3136 3137 3137 3137 3136 3136 3135 3135 3134 3132 3129 3127 3125 3124 3123 3121 3120 3119 3120 3123 3117 3120 3128 3131 3134 3138 3141 3143 3144 3145 3148 3150 3153 3157 3160 3162 3165 3168 3169 3171 3172 3174 3174 3175 3176
3138 3137 3138 3136 3135 3136 3135 3136 3135 3134 3133 3132 3131 3130 3127 3124 3123 3123 3121 3121 3119 3118 3117 3122 3120 3121 3125 3129 3131 3135 3139 3142 3143 3143 3146 3149 3151 3155 3158 3161 3164 3167 3169 3170 3172 3173 3176 3177 3178
3136 3135 3135 3134 3134 3134 3133 3133 3133 3132 3131 3130 3128 3127 3124 3122 3120 3119 3119 3117 3119 3117 3118 3121 3122 3123 3124 3126 3128 3131 3134 3138 3139 3141 3145 3145 3150 3154 3158 3160 3164 3166 3168 3170 3172 3174 3177 3177 3178
3133 3133 3132 3132 3132 3132 3131 3131 3130 3129 3129 3127 3126 3123 3122 3119 3117 3115 3115 3115 3115 3115 3116 3117 3119 3120 3122 3123 3125 3127 3128 3131 3135 3138 3142 3146 3150 3153 3156 3160 3163 3166 3169 3171 3172 3175 3176 3177 3178
3131 3130 3130 3129 3130 3130 3129 3129 3128 3127 3126 3124 3123 3120 3119 3117 3114 3112 3112 3112 3111 3111 3112 3115 3116 3116 3116 3117 3121 3122 3122 3127 3130 3134 3139 3143 3148 3152 3156 3159 3163 3166 3169 3171 3173 3174 3175 3177 3178
3128 3127 3127 3127 3128 3127 3127 3126 3125 3124 3123 3121 3119 3117 3115 3113 3111 3109 3108 3107 3107 3107 3109 3110 3112 3110 3109 3112 3115 3117 3119 3120 3123 3128 3136 3141 3146 3151 3154 3159 3162 3166 3169 3171 3173 3173 3175 3176 3178
3125 3125 3123 3123 3125 3125 3124 3123 3122 3121 3120 3118 3116 3114 3112 3109 3106 3105 3104 3103 3102 3102 3103 3105 3104 3104 3100 3103 3107 3110 3111 3113 3118 3121 3131 3138 3144 3148 3153 3158 3162 3165 3169 3171 3173 3174 3175 3177 3179
3121 3120 3120 3120 3121 3121 3121 3120 3118 3118 3117 3115 3113 3110 3109 3105 3103 3100 3099 3099 3100 3100 3101 3101 3098 3086 3091 3088 3098 3100 3102 3108 3115 3120 3128 3136 3142 3147 3153 3156 3161 3165 3167 3171 3172 3173 3174 3176 3178
3116 3116 3117 3117 3118 3117 3118 3116 3115 3115 3113 3113 3110 3107 3105 3103 3100 3097 3095 3097 3097 3097 3097 3097 3094 3090 3089 3089 3095 3096 3103 3105 3112 3118 3126 3132 3139 3144 3150 3154 3159 3163 3165 3169 3171 3173 3174 3176 3177
3112 3113 3113 3114 3114 3114 3114 3113 3112 3111 3111 3109 3107 3104 3102 3101 3098 3096 3094 3095 3094 3094 3093 3094 3091 3091 3091 3093 3097 3098 3101 3104 3111 3116 3125 3131 3136 3142 3149 3155 3159 3163 3164 3168 3169 3173 3174 3174 3178
3108 3109 3109 3110 3109 3110 3110 3111 3109 3106 3107 3106 3103 3100 3099 3098 3096 3095 3094 3093 3091 3091 3092 3088 3088 3091 3092 3096 3098 3100 3104 3106 3110 3114 3122 3129 3134 3141 3148 3154 3158 3160 3163 3166 3169 3171 3172 3176 3177
3104 3105 3105 3105 3106 3106 3106 3107 3106 3104 3104 3102 3100 3097 3096 3096 3095 3093 3093 3092 3092 3090 3088 3086 3084 3089 3092 3095 3098 3100 3103 3105 3110 3114 3123 3127 3131 3137 3147 3154 3156 3159 3162 3165 3167 3169 3172 3175 3176
3101 3101 3100 3100 3101 3100 3101 3101 3100 3102 3100 3098 3097 3095 3093 3094 3093 3092 3091 3090 3089 3088 3086 3083 3082 3089 3091 3093 3097 3100 3103 3105 3110 3114 3120 3125 3132 3140 3146 3151 3154 3158 3161 3165 3166 3169 3171 3174 3174
3097 3097 3096 3097 3097 3096 3097 3095 3099 3097 3095 3095 3093 3093 3092 3091 3091 3090 3089 3090 3088 3087 3083 3082 3082 3086 3088 3091 3096 3097 3102 3105 3110 3114 3117 3124 3131 3139 3144 3148 3152 3156 3161 3163 3166 3169 3171 3171 3173
3092 3092 3092 3094 3094 3093 3093 3092 3095 3093 3092 3093 3091 3091 3090 3089 3089 3088 3088 3087 3086 3086 3083 3081 3079 3082 3086 3089 3094 3096 3098 3105 3109 3113 3118 3125 3131 3136 3143 3146 3150 3153 3159 3161 3165 3167 3169 3170 3172
3084 3087 3088 3089 3091 3089 3089 3090 3091 3090 3089 3090 3090 3089 3088 3087 3087 3087 3087 3086 3085 3083 3082 3080 3079 3082 3086 3089 3093 3097 3101 3104 3108 3110 3116 3123 3128 3134 3139 3143 3146 3151 3154 3158 3162 3166 3167 3168 3169
3082 3084 3084 3086 3086 3086 3085 3085 3087 3087 3087 3087 3087 3086 3086 3085 3085 3086 3085 3085 3084 3084 3081 3079 3079 3081 3083 3088 3092 3096 3098 3101 3105 3109 3112 3116 3122 3130 3135 3138 3141 3146 3150 3154 3158 3163 3165 3166 3167
3077 3079 3080 3082 3083 3082 3081 3079 3081 3082 3082 3083 3083 3083 3084 3082 3083 3084 3084 3084 3083 3082 3080 3079 3078 3079 3081 3085 3089 3092 3096 3099 3102 3105 3110 3112 3117 3125 3130 3134 3136 3143 3147 3149 3155 3159 3163 3163 3164
3071 3072 3075 3079 3080 3079 3077 3073 3076 3077 3076 3078 3079 3079 3079 3080 3079 3081 3082 3082 3082 3081 3080 3079 3079 3079 3079 3082 3084 3087 3090 3093 3097 3100 3104 3108 3113 3119 3125 3130 3133 3139 3141 3145 3151 3155 3158 3159 3160
3067 3068 3072 3075 3077 3077 3075 3068 3069 3071 3071 3072 3074 3075 3075 3075 3076 3076 3079 3080 3080 3080 3080 3080 3080 3080 3079 3079 3080 3081 3085 3089 3092 3097 3102 3105 3107 3113 3119 3125 3128 3134 3137 3141 3146 3148 3153 3155 3156
3063 3064 3068 3071 3072 3072 3072 3073 3063 3065 3065 3066 3068 3071 3072 3072 3072 3073 3075 3076 3077 3079 3079 3080 3080 3081 3080 3080 3079 3079 3083 3085 3088 3094 3099 3103 3106 3112 3115 3120 3125 3128 3133 3137 3140 3144 3148 3150 3151
3061 3064 3066 3067 3067 3066 3066 3071 3057 3060 3061 3061 3063 3065 3067 3068 3069 3070 3071 3071 3073 3075 3078 3079 3081 3082 3082 3083 3082 3082 3082 3084 3088 3093 3096 3100 3103 3107 3111 3116 3120 3125 3128 3133 3137 3140 3142 3144 3144
3057 3060 3064 3064 3063 3057 3060 3062 3054 3056 3057 3056 3057 3060 3061 3061 3063 3065 3067 3069 3071 3073 3076 3077 3079 3081 3082 3083 3084 3084 3083 3084 3086 3088 3093 3096 3099 3103 3106 3111 3114 3119 3124 3127 3131 3133 3136 3137 3137
3049 3055 3057 3056 3055 3052 3054 3053 3051 3053 3053 3053 3053 3055 3056 3056 3059 3061 3063 3065 3067 3070 3073 3075 3076 3078 3080 3081 3082 3083 3084 3085 3086 3088 3091 3093 3095 3098 3102 3106 3109 3113 3118 3120 3123 3126 3129 3130 3130
3045 3047 3052 3053 3053 3053 3049 3047 3048 3049 3050 3051 3051 3052 3052 3052 3054 3056 3057 3060 3063 3066 3069 3072 3073 3075 3077 3079 3080 3081 3082 3083 3085 3087 3089 3090 3092 3095 3098 3102 3104 3108 3110 3113 3115 3118 3120 3121 3122
3040 3045 3049 3049 3048 3047 3042 3044 3045 3046 3047 3048 3048 3048 3048 3048 3049 3050 3052 3055 3059 3061 3064 3067 3069 3071 3073 3074 3076 3078 3080 3081 3083 3084 3085 3087 3089 3091 3093 3096 3100 3104 3106 3108 3108 3110 3111 3111 3113
3036 3037 3040 3041 3041 3039 3039 3039 3041 3042 3042 3043 3044 3046 3045 3044 3045 3046 3048 3050 3053 3056 3059 3062 3064 3066 3068 3070 3072 3073 3075 3077 3079 3080 3082 3084 3086 3088 3089 3091 3093 3095 3098 3099 3099 3100 3102 3102 3103
3031 3034 3037 3036 3035 3035 3035 3033 3039 3041 3040 3041 3042 3042 3042 3042 3042 3043 3045 3047 3049 3052 3055 3057 3058 3060 3062 3063 3065 3067 3069 3071 3073 3075 3078 3080 3082 3083 3085 3085 3086 3088 3089 3090 3091 3092 3092 3090 3092